Location: Tamazert
(32.6352°N, 5.2072°W)
Time: 22:49:23
(UTC+00:00)

SL-8 Rocket - Pass Details

Date: 22 May 2022
Orbit: 958 x 989 km, 82.9° (Epoch: 24 June)

Event Time Altitude Azimuth Distance (km) Brightness Sun altitude
Rises 04:39:32 0° 345° (NNW) 3,704 7.2 -8.0°
Reaches altitude 10° 04:42:10 10° 339° (NNW) 2,753 6.5 -7.5°
Maximum altitude 04:48:04 43° 270° (W) 1,354 4.4 -6.5°
Drops below altitude 10° 04:53:57 10° 201° (SSW) 2,736 5.9 -5.4°
Sets 04:56:34 0° 194° (SSW) 3,678 6.6 -4.9°
